Regional Weather Roundup
Issued by NWS Goodland, KS

Home | Current Version | Previous Version | Graphics & Text | Print | Product List | Glossary On
Versions: 1 2 3 4 5 6 7 8 9 10 11 12 13 14 15 16 17 18 19 20 21 22 23 24 25 26 27 28 29 30 31 32 33 34 35 36 37 38 39 40 41 42 43 44 45 46 47 48 49 50
000
ASUS43 KGLD 231508
RWRGLD

GOODLAND FORECAST AREA HOURLY WEATHER ROUNDUP
NATIONAL WEATHER SERVICE GOODLAND KS
900 AM MDT WED AUG 23 2017

...OFFICIAL OBSERVATIONS...

CITY           SKY/WX    TMP DP  RH WIND       PRES   REMARKS
GOODLAND KS    SUNNY     65  51  60 S21       30.20S
HILL CITY KS   SUNNY     69  52  54 S9        30.20F
IMPERIAL NEB   SUNNY     69  47  45 S10G24    30.17F
MCCOOK NEB     SUNNY     68  51  54 S10       30.19S
AKRON CO       SUNNY     72  57  59 S16G23    30.17S
BURLINGTON CO  CLOUDY    67  59  75 S20G28    30.20F
LIMON CO       CLOUDY    64  59  83 S12       30.25S
$$

...UNOFFICIAL OBSERVATIONS...

CITY           SKY/WX    TMP DP  RH WIND       PRES   REMARKS
LENORA KS        N/A     68  32  26 S8          N/A
NORTON KS      SUNNY     70  45  40 S14G20    30.19S
TRENTON NEB      N/A     70  32  24 S9          N/A
KIT CARSON CO    N/A     63  59  87 MISG        N/A
YUMA CO        FAIR      66  50  55 S16G25    30.16F
$$




USA.gov is the U.S. government's official web portal to all federal, state and local government web resources and services.